GFSGL_sfc_temp_132.txt.gz
Temp
68 69 68 68 68 69 69 69 68 68 68 66 66 66 66 65 66 63 60 59 57 57 57 56 56 56 55 51 47 45 44 45 44 43 43 46 44 42 43 41 43 44 42
67 67 67 67 67 66 66 67 67 66 67 65 65 64 64 64 64 61 58 57 57 56 56 54 54 49 49 47 45 46 45 45 43 42 46 44 40 42 42 44 43 42 41
64 64 65 64 64 64 65 66 65 64 64 64 63 62 62 61 60 59 59 58 55 55 53 50 50 48 46 45 43 43 42 42 42 40 40 41 41 43 42 41 38 37 42
60 61 61 61 62 63 64 63 62 62 62 61 59 58 58 58 59 56 54 51 49 48 47 47 47 46 45 44 42 41 41 41 38 38 39 40 40 38 37 36 36 38 40
56 57 55 55 58 58 57 56 54 54 54 53 51 50 49 49 47 48 47 46 45 44 43 44 43 40 38 42 41 41 41 38 37 37 37 36 36 34 36 39 37 39 40
53 54 55 50 45 46 45 43 43 43 45 43 42 43 43 43 42 42 44 45 44 44 43 42 42 38 41 40 40 41 41 39 35 36 36 37 38 38 39 38 37 33 35
50 47 45 42 42 44 43 43 43 43 43 42 42 42 40 42 42 42 40 46 45 45 44 42 40 40 38 41 40 40 39 40 41 42 38 39 38 39 37 34 33 35 36
46 44 43 42 40 39 40 41 41 42 43 41 41 40 39 40 41 40 39 44 43 43 42 41 41 40 39 37 40 38 38 39 41 41 41 41 40 37 35 34 34 32 34
44 44 42 42 39 38 38 39 39 38 37 37 37 36 37 38 40 39 39 38 37 38 39 41 41 39 37 38 36 34 34 36 38 39 39 39 39 39 38 35 32 31 32
44 43 43 41 38 37 38 37 37 37 35 36 34 35 34 36 39 39 39 38 34 36 36 36 35 38 38 38 34 33 32 34 33 32 33 34 36 36 38 34 33 30 30
44 41 39 39 37 38 37 36 35 35 34 33 32 32 33 35 37 38 38 37 36 35 35 35 36 37 38 38 37 33 33 33 34 32 33 34 34 34 36 35 33 32 31
41 38 36 35 36 35 34 34 34 34 33 32 31 32 33 34 36 38 38 38 38 34 34 35 36 37 38 38 36 37 38 34 34 33 32 32 33 34 35 35 33 33 34
36 34 34 34 34 34 34 34 34 34 34 32 32 32 31 32 35 38 38 38 36 34 35 35 35 35 35 36 36 35 33 34 34 32 32 33 34 36 34 33 33 33 33
34 33 33 33 32 33 35 35 35 34 34 32 32 32 31 31 32 34 35 36 34 35 35 34 35 35 35 34 34 35 34 34 33 33 33 35 35 34 33 34 32 33 32
34 33 32 33 32 32 33 34 35 35 36 33 33 33 31 31 32 34 34 33 34 34 33 33 33 33 33 34 34 34 34 34 33 32 32 31 31 31 31 33 32 32 29
32 32 32 32 32 32 32 30 33 33 34 35 35 34 31 35 35 35 35 35 35 35 32 32 32 32 32 31 31 30 31 29 29 29 30 30 29 28 28 29 29 29 28
33 32 32 32 32 32 32 31 29 32 34 34 34 35 36 36 36 36 36 36 36 35 31 31 29 30 29 29 29 29 27 27 29 29 30 30 30 30 29 29 29 28 28
33 32 32 32 32 33 32 32 31 29 28 29 34 34 35 36 36 36 34 31 28 30 29 28 27 27 26 25 24 24 24 24 24 23 24 23 23 23 24 24 25 24 24
31 31 32 32 32 32 31 30 29 28 26 22 22 26 30 31 32 35 32 30 26 23 23 22 23 22 21 20 19 19 18 18 17 18 19 18 18 19 19 19 20 19 19
28 27 27 25 24 25 25 25 24 24 22 22 24 23 18 19 22 20 20 22 21 19 19 18 16 16 16 16 15 15 16 15 15 15 14 14 15 15 15 15 16 16 17
25 24 25 25 24 24 23 23 23 22 20 20 20 17 19 22 18 17 16 17 17 16 15 15 13 13 12 12 12 12 12 13 11 11 12 12 11 11 12 14 14 14 14
21 21 22 20 20 20 20 20 20 19 18 17 17 20 18 16 15 15 14 13 12 12 12 13 12 11 11 11 11 11 10 10 10 10 10 8 9 11 11 11 11 12 12
17 16 16 17 16 16 16 17 17 17 16 16 15 13 12 13 13 12 12 10 9 9 8 8 10 7 7 6 7 9 9 9 9 7 7 8 8 10 10 10 10 9 10
16 15 14 14 15 15 14 13 13 13 13 11 11 11 11 10 10 10 10 9 8 7 6 5 6 7 6 5 5 4 4 4 5 4 4 6 7 8 9 9 9 8 8
14 13 13 13 13 12 12 11 11 11 11 11 10 10 10 10 9 9 8 7 6 6 6 5 5 5 4 3 3 3 4 4 3 4 5 5 6 7 7 7 7 7 7
11 11 11 12 11 12 12 11 11 11 10 10 9 9 10 9 9 9 7 6 5 5 5 5 5 3 3 3 3 3 1 4 3 1 6 8 8 9 8 7 6 6 6

GFSGL_sfc_temp_138.txt.gz
Temp
61 62 62 63 66 67 67 67 67 67 66 65 64 64 64 63 63 62 63 63 61 60 58 58 58 59 58 57 55 53 53 52 51 46 45 45 43 42 42 40 39 40 38
59 60 61 62 62 62 65 66 66 65 64 64 64 63 63 63 63 63 63 61 59 58 57 56 57 56 55 54 51 50 48 47 46 44 42 41 41 41 40 37 38 39 37
57 57 58 59 59 60 62 63 63 62 62 62 63 63 63 64 63 62 62 59 58 57 57 56 56 54 52 48 47 46 45 43 43 41 40 39 39 39 34 34 35 33 37
55 54 55 56 58 59 60 60 60 61 62 63 63 63 62 61 60 60 59 57 56 56 56 55 53 51 50 47 45 45 42 41 39 36 35 35 36 35 30 33 31 27 29
53 52 52 54 56 57 57 58 59 58 61 59 58 58 58 58 58 56 56 56 54 51 48 48 47 45 43 46 45 43 42 38 35 35 34 34 34 32 33 33 28 27 29
50 50 51 51 51 51 51 53 53 52 53 53 52 52 52 50 46 47 50 50 47 46 45 43 43 37 41 42 43 43 43 40 36 35 34 34 35 35 33 29 27 24 25
48 46 45 45 44 44 44 44 45 46 46 47 47 47 47 47 44 44 43 48 47 46 44 42 39 39 38 38 41 42 41 42 42 39 35 36 35 35 32 31 29 31 32
45 43 41 40 40 40 41 42 43 42 43 44 45 45 45 42 42 42 41 45 45 44 43 40 39 37 36 36 36 36 35 37 38 39 38 36 36 32 33 32 32 31 30
46 45 41 39 38 38 39 41 41 40 39 39 38 38 38 37 41 41 41 39 38 38 39 39 39 35 38 39 36 34 33 33 39 40 40 40 40 38 35 33 28 22 19
44 45 43 39 37 37 39 40 38 37 37 36 35 36 36 37 40 40 39 36 35 35 35 35 34 36 38 39 35 34 32 32 32 31 31 33 36 36 38 33 32 28 23
43 43 43 38 37 38 36 38 37 36 35 35 35 34 34 35 37 40 40 36 35 33 33 32 33 38 38 38 37 34 33 33 34 31 31 31 31 32 32 32 32 28 25
40 40 40 40 38 35 36 36 35 35 36 35 34 33 33 34 35 39 40 39 38 35 33 33 34 38 39 38 35 37 36 33 32 31 30 30 30 31 31 29 29 30 26
37 37 37 37 35 34 36 36 36 36 37 35 35 36 34 33 35 38 39 39 38 34 34 34 37 38 38 37 37 37 33 32 32 29 29 30 31 31 28 30 30 30 30
34 35 37 35 35 35 36 36 36 35 36 36 35 35 35 33 34 35 36 36 35 34 35 35 36 36 35 34 34 34 33 33 32 31 30 30 30 29 29 29 28 28 27
32 33 35 35 35 35 35 36 36 37 38 36 36 36 35 33 34 36 35 34 33 34 33 33 31 30 29 30 30 31 31 30 30 30 30 29 29 29 27 27 26 22 19
29 31 33 35 36 35 35 34 37 38 38 39 40 38 35 38 38 37 37 36 36 35 31 29 28 29 28 29 29 29 30 28 29 29 28 27 25 22 21 20 20 18 17
20 25 30 33 35 35 34 33 33 31 37 39 39 38 37 37 37 37 37 36 36 35 31 30 29 30 30 30 29 28 27 27 27 27 24 22 21 19 18 18 19 19 16
15 21 26 32 34 35 34 34 34 33 31 31 36 36 36 37 36 37 37 36 33 33 31 30 30 30 29 28 28 27 24 22 22 21 21 20 18 18 17 15 15 12 10
14 18 26 31 34 34 34 34 33 33 32 31 31 33 34 36 36 36 37 33 31 30 30 29 29 27 26 24 23 22 21 19 18 18 17 17 16 15 12 12 12 11 9
16 21 26 30 32 33 33 32 32 31 31 30 30 31 32 32 32 32 33 31 30 28 27 24 23 22 21 20 19 18 16 15 15 16 15 14 12 12 12 9 5 4 2
17 20 25 26 27 29 31 31 31 30 29 29 28 27 33 31 31 26 25 25 24 22 21 20 18 18 17 17 16 16 16 15 14 13 12 11 10 9 7 9 2 2 2
16 17 18 19 20 21 21 22 23 22 19 20 22 25 26 22 21 20 18 17 17 18 18 17 16 15 15 15 15 14 14 12 11 11 11 9 8 8 6 5 4 1 -2
14 15 15 15 15 16 17 17 18 18 16 15 16 15 16 15 15 15 13 12 12 12 14 14 13 11 12 12 14 14 13 12 11 11 9 7 7 6 5 2 4 -1 -3
11 11 12 13 14 13 13 13 13 13 13 12 12 12 12 12 12 11 10 10 10 9 10 11 11 10 9 9 9 8 10 9 9 9 8 7 6 6 5 4 3 2 1
8 8 9 9 9 10 11 11 11 11 11 11 11 10 10 10 10 9 9 9 9 9 8 9 9 10 9 8 7 6 7 10 6 6 4 4 4 4 4 3 1 1 -4
6 6 6 7 7 7 7 8 8 9 9 9 9 9 10 10 10 10 9 8 8 8 8 8 8 8 8 7 7 7 7 9 5 5 4 3 2 2 2 1 0 -3 -3

GFSGL_sfc_temp_141.txt.gz
Temp
56 57 57 58 60 63 66 66 66 66 66 64 63 63 63 62 62 61 62 62 61 60 61 60 60 61 60 59 58 58 56 56 53 49 46 45 44 43 42 41 40 40 38
56 56 56 57 58 58 61 65 66 65 64 65 66 64 63 63 62 61 60 61 61 59 60 59 59 59 58 59 57 55 55 54 53 51 44 42 42 42 41 39 39 39 36
55 55 55 55 56 58 59 60 60 62 63 62 64 64 64 63 62 61 61 61 60 61 60 58 59 58 56 56 54 54 52 46 48 44 41 40 39 39 37 36 36 34 37
53 52 52 53 55 56 58 58 59 60 61 61 62 63 63 63 62 62 61 61 60 59 59 58 58 57 56 53 51 50 47 45 41 38 35 36 36 35 34 34 33 32 33
54 51 52 51 52 53 54 55 56 56 59 60 61 61 62 61 61 60 59 59 58 57 56 56 56 52 46 49 49 47 45 40 36 36 34 34 34 33 34 33 33 32 30
50 49 50 48 47 48 49 50 48 49 53 55 54 55 56 57 51 49 54 56 55 55 54 49 47 39 42 43 44 44 46 43 38 36 34 34 34 35 33 33 33 31 26
45 45 44 42 42 43 40 41 43 45 48 49 51 51 52 55 46 47 46 56 54 52 49 45 41 41 39 42 41 42 42 43 42 41 36 36 35 35 34 31 31 28 31
41 41 41 41 41 41 38 39 42 44 44 46 47 48 49 46 44 44 42 50 48 47 46 45 44 39 39 39 38 37 36 38 39 39 40 37 38 35 35 33 31 29 30
38 39 39 40 39 39 39 39 40 41 43 43 41 42 42 43 41 42 42 41 40 40 42 42 42 39 38 40 36 35 34 34 39 40 40 39 38 37 34 32 26 22 19
36 36 37 38 38 38 39 39 40 38 39 41 39 39 39 41 40 41 42 39 37 37 37 37 35 39 38 39 37 35 33 32 33 32 34 37 37 36 37 32 28 23 19
35 34 34 36 36 37 37 37 37 37 37 38 38 38 37 37 38 41 41 39 40 37 36 35 35 38 39 39 38 35 35 33 34 32 32 32 33 32 32 30 29 26 23
28 28 30 33 35 36 36 35 36 35 35 36 36 37 36 35 36 40 41 41 40 37 36 35 35 38 39 39 36 38 37 34 32 31 30 30 30 31 31 29 29 29 27
23 23 28 32 34 35 35 35 35 36 35 36 36 36 38 34 35 39 40 40 39 36 35 35 37 38 39 38 37 37 34 32 31 30 29 29 30 31 30 29 29 30 29
18 23 28 27 30 34 36 36 35 35 36 35 36 36 37 38 35 36 36 37 36 35 35 35 37 37 37 35 34 35 33 33 32 31 30 30 30 29 29 30 28 28 23
16 17 21 26 29 31 33 35 35 37 37 36 36 37 36 36 36 38 37 35 35 34 33 34 34 33 32 33 33 32 32 32 31 30 29 29 29 29 28 28 27 19 18
12 15 15 17 20 25 29 33 38 38 38 39 39 38 38 39 39 38 38 37 37 36 33 33 31 31 31 31 30 30 30 30 31 31 30 29 28 27 26 21 20 17 17
9 11 13 14 16 20 25 30 31 36 38 37 38 39 39 40 38 37 37 37 37 36 33 32 31 30 30 30 30 30 29 30 30 29 29 27 26 25 23 21 22 22 15
11 12 12 14 16 19 25 30 32 32 33 34 36 37 38 39 38 38 37 36 33 34 34 31 30 30 30 29 29 29 27 27 27 26 25 24 24 23 21 21 21 17 13
11 13 15 16 17 21 26 29 32 33 33 33 34 34 35 37 37 38 37 34 33 32 32 31 31 31 30 30 29 27 27 26 25 23 22 21 21 20 19 18 17 16 13
13 15 16 17 19 23 26 27 31 32 32 33 32 32 33 32 33 33 34 33 33 32 31 31 30 30 29 27 25 24 22 21 21 20 19 18 17 18 17 15 14 12 11
12 13 15 16 16 18 19 20 21 25 29 30 29 28 33 32 32 32 32 32 32 30 29 26 25 24 24 23 22 21 20 19 19 17 16 16 15 14 14 14 12 11 9
10 11 12 13 14 14 14 14 15 17 16 16 17 18 24 20 19 18 17 17 18 20 21 21 20 20 20 20 19 18 17 16 16 15 14 13 12 12 11 11 10 8 6
8 8 9 10 10 12 12 13 12 12 12 13 13 13 13 13 13 12 12 12 13 14 16 16 15 14 15 16 18 18 16 15 16 15 13 11 10 10 9 9 7 5 4
6 6 6 7 7 8 8 9 9 10 10 10 10 10 10 10 10 10 10 10 11 11 12 12 12 12 11 11 12 13 14 13 13 13 12 10 9 9 8 7 6 5 5
4 3 4 4 4 5 5 6 6 7 8 8 8 9 10 10 9 9 9 9 9 9 9 9 10 10 10 9 9 9 11 12 10 10 10 10 9 8 7 7 6 4 3
1 1 1 1 2 3 3 3 3 4 4 5 6 7 7 8 8 8 8 8 8 8 8 8 8 8 8 8 8 8 10 10 7 7 7 7 7 6 6 5 4 4 3

GFSGL_sfc_temp_147.txt.gz
Temp
50 51 52 52 53 54 55 56 57 58 60 61 61 61 61 62 63 62 62 62 60 60 61 60 59 60 59 59 58 58 57 56 53 57 54 51 46 43 42 42 42 40 42
48 49 49 50 50 50 51 53 54 55 57 58 60 61 61 62 63 62 61 61 60 60 60 60 59 59 58 59 58 57 57 57 55 54 54 45 45 43 42 40 40 40 40
45 45 45 45 46 47 48 49 50 51 52 54 56 57 60 62 62 63 62 62 61 61 61 60 60 59 58 58 58 57 57 57 57 55 54 41 39 39 38 37 37 37 39
42 42 42 42 42 43 44 45 46 46 47 49 51 53 55 58 60 61 62 61 61 61 61 61 60 59 59 58 57 57 57 55 55 54 47 38 38 36 36 34 34 34 34
39 39 39 40 40 39 39 40 41 42 44 46 47 48 50 53 56 58 60 60 60 60 60 60 60 57 50 55 57 57 56 54 52 48 37 35 36 34 36 35 36 33 33
37 36 37 36 35 35 35 35 37 38 40 41 42 43 44 48 47 46 48 56 58 58 58 59 58 46 48 46 47 50 55 54 50 47 44 40 38 36 35 35 33 32 31
33 34 32 33 32 30 31 31 32 35 37 37 39 40 41 44 45 44 42 48 52 56 57 57 56 54 46 54 48 46 47 47 52 49 46 43 40 38 37 34 34 34 34
30 29 29 28 26 28 28 29 30 32 33 34 35 37 38 40 42 43 42 45 47 51 55 55 55 50 48 49 51 48 48 47 47 47 50 47 46 42 41 39 37 33 31
24 24 24 24 24 24 24 25 27 32 34 34 35 36 36 36 39 40 41 41 42 44 48 52 53 52 47 43 48 43 41 39 40 42 43 43 42 42 39 35 33 34 28
21 21 22 22 21 20 22 25 29 29 30 31 34 36 36 36 39 40 40 39 38 40 42 42 39 45 44 42 44 41 39 38 35 34 35 38 40 39 39 39 36 35 27
20 19 19 19 18 20 21 21 22 24 28 31 33 35 36 37 38 40 40 38 38 37 39 41 42 41 42 42 42 40 40 37 37 35 34 34 34 34 35 34 37 38 32
16 15 14 15 17 19 17 19 21 21 21 23 27 30 34 37 39 41 40 40 41 37 37 40 42 40 41 42 41 43 41 37 35 34 34 33 33 33 33 33 32 31 31
11 10 12 14 15 16 15 15 16 18 18 20 23 26 30 35 37 40 40 39 39 37 38 39 40 40 40 41 41 40 36 35 35 34 34 34 34 35 32 30 29 29 29
9 11 12 13 13 14 16 17 15 15 16 18 20 22 26 29 33 36 37 38 37 37 37 38 38 39 39 40 36 38 36 36 36 36 35 35 34 31 30 30 28 27 27
9 10 11 12 12 13 16 16 18 20 21 20 21 23 24 26 31 36 36 36 36 37 35 36 35 35 35 36 35 36 35 35 34 35 34 33 31 31 30 30 29 27 27
7 8 10 12 13 14 14 15 22 24 27 28 30 29 29 32 33 36 37 38 38 39 35 34 34 35 34 35 34 34 34 34 34 34 34 32 30 30 29 28 29 28 26
4 8 9 11 11 11 12 12 11 17 23 24 25 26 27 26 28 30 31 37 38 37 34 34 34 34 35 35 35 35 34 34 34 34 33 32 31 31 29 28 27 27 25
4 7 8 8 9 10 10 11 11 10 10 12 18 21 22 24 25 27 29 34 34 34 34 34 34 34 35 35 35 34 35 33 33 33 32 32 31 30 28 27 27 26 25
4 5 7 7 8 9 9 9 9 9 9 9 11 15 16 20 20 21 21 15 17 27 32 33 34 34 34 35 35 34 34 33 33 32 32 31 31 30 29 28 27 26 24
1 4 3 4 5 5 6 6 6 6 6 7 7 8 14 11 9 9 11 11 11 12 15 16 32 34 34 33 33 33 33 33 32 32 31 31 30 30 28 26 25 23 21
-1 -1 0 0 1 2 3 3 4 4 4 4 5 8 17 8 7 8 8 9 9 10 11 13 17 21 32 33 32 32 32 32 31 31 30 28 27 26 26 24 22 22 18
-4 -4 -4 -4 -2 -2 -1 0 1 1 1 2 3 5 12 6 6 5 6 7 8 9 10 11 11 14 16 18 26 29 29 28 27 26 25 25 25 23 22 20 18 17 16
-7 -7 -7 -6 -5 -5 -4 -4 -3 -3 -3 -1 -0 0 2 2 3 3 3 5 6 8 9 9 9 9 11 12 15 17 20 21 22 23 22 20 20 19 19 17 16 14 14
-14 -14 -10 -10 -9 -8 -8 -8 -6 -6 -6 -6 -5 -4 -3 -1 -0 1 0 1 3 5 6 8 8 7 8 9 11 12 15 17 19 20 20 19 17 17 16 15 15 14 12
-18 -17 -16 -14 -13 -12 -11 -10 -10 -9 -9 -8 -8 -7 -7 -5 -4 -3 -3 -2 -1 1 2 5 6 6 7 7 10 11 12 12 13 15 16 16 15 15 14 14 12 11 10
-17 -19 -18 -14 -14 -14 -14 -13 -13 -12 -12 -11 -10 -10 -10 -9 -7 -7 -6 -6 -5 -3 -2 1 3 4 5 7 9 11 13 16 11 12 13 13 12 11 12 11 10 9 9